Retour au catalogue

THORAD AGENA D DEB

ActifLEO
NORAD 4149·DEBRIS·🇺🇸 United States

Lancé Sep 30, 1969 depuis Vandenberg Space Force Base

Loading…

Prochains Passages (prochaines 24 heures)

TLE

FraisSource: Space-Track

Époque: Sep 14, 2026, 14:03 UTC

1  4149U 69082T   26257.58565697  .00000145  00000-0  92975-4 0  9992
2  4149  70.3032 104.6848 0038320 294.4117  65.3007 14.19955974931255

Suivez THORAD AGENA D DEB en temps réel avec AllMySat

Download on the App Store